TimePST,TemperatureF,Dew PointF,Humidity,Sea Level PressureIn,VisibilityMPH,Wind Direction,Wind SpeedMPH,Gust SpeedMPH,PrecipitationIn,Events,Conditions,WindDirDegrees,DateUTC
12:53 AM,62.1,18.0,18,30.05,10.0,NNE,4.6,-,N/A,,Clear,20,2014-01-17 08:53:00
1:53 AM,57.0,21.0,25,30.05,10.0,Calm,Calm,-,N/A,,Clear,0,2014-01-17 09:53:00
2:53 AM,57.0,21.0,25,30.06,10.0,Calm,Calm,-,N/A,,Clear,0,2014-01-17 10:53:00
3:53 AM,53.1,24.1,32,30.06,10.0,Calm,Calm,-,N/A,,Clear,0,2014-01-17 11:53:00
4:53 AM,52.0,26.1,37,30.06,10.0,Calm,Calm,-,N/A,,Clear,0,2014-01-17 12:53:00
5:53 AM,51.1,26.1,38,30.07,10.0,Calm,Calm,-,N/A,,Clear,0,2014-01-17 13:53:00
6:53 AM,50.0,28.0,43,30.08,10.0,WNW,3.5,-,N/A,,Clear,300,2014-01-17 14:53:00
7:53 AM,55.9,27.0,33,30.09,10.0,Calm,Calm,-,N/A,,Clear,0,2014-01-17 15:53:00
8:53 AM,64.9,28.9,26,30.11,10.0,WNW,3.5,-,N/A,,Clear,290,2014-01-17 16:53:00
9:53 AM,75.9,28.9,18,30.11,10.0,Calm,Calm,-,N/A,,Clear,0,2014-01-17 17:53:00
10:53 AM,82.9,10.9,7,30.09,10.0,ESE,8.1,-,N/A,,Clear,120,2014-01-17 18:53:00
11:53 AM,82.9,18.0,9,30.06,10.0,Variable,4.6,-,N/A,,Clear,0,2014-01-17 19:53:00
12:53 PM,84.9,10.0,6,30.03,10.0,Calm,Calm,-,N/A,,Clear,0,2014-01-17 20:53:00
1:53 PM,87.1,10.0,6,30.01,10.0,Calm,Calm,-,N/A,,Clear,0,2014-01-17 21:53:00
2:53 PM,87.1,10.9,6,30.00,10.0,Calm,Calm,-,N/A,,Clear,0,2014-01-17 22:53:00
3:53 PM,84.9,21.0,10,30.00,10.0,SW,8.1,-,N/A,,Clear,230,2014-01-17 23:53:00
4:53 PM,79.0,18.0,10,30.02,10.0,WNW,6.9,-,N/A,,Clear,290,2014-01-18 00:53:00
5:53 PM,73.0,26.1,17,30.04,10.0,WNW,3.5,-,N/A,,Clear,290,2014-01-18 01:53:00
6:53 PM,68.0,26.1,21,30.04,10.0,Calm,Calm,-,N/A,,Clear,0,2014-01-18 02:53:00
7:53 PM,63.0,30.0,29,30.04,10.0,Calm,Calm,-,N/A,,Clear,0,2014-01-18 03:53:00
8:53 PM,60.1,30.9,33,30.05,10.0,Calm,Calm,-,N/A,,Clear,0,2014-01-18 04:53:00
9:53 PM,57.9,30.9,36,30.05,10.0,Calm,Calm,-,N/A,,Clear,0,2014-01-18 05:53:00
10:53 PM,55.0,32.0,42,30.04,10.0,Calm,Calm,-,N/A,,Clear,0,2014-01-18 06:53:00
11:53 PM,55.0,30.9,40,30.04,10.0,Calm,Calm,-,N/A,,Clear,0,2014-01-18 07:53:00